Home   Weather   Córdoba   Past weeks
Flag for Spain

Past Weather in Córdoba, Spain — Yesterday and Last 2 Weeks

Now
55 °F

Overcast.


Feels Like: 55 °F
Forecast: 58 / 44 °F
Wind: 1 mph from North

Location: Cordoba / Aeropuerto

Current Time: Dec 14, 2019 at 10:34:11 pm

Latest Report: Dec 14, 2019 at 9:30 pm


Visibility: N/A

Pressure: 30.15 "Hg

Humidity: 72%

Dew Point: 46 °F

Location of CórdobaLocation

Past Weather in Córdoba — Graph

°F

Córdoba Temperature Yesterday

Maximum temperature yesterday: 64 °F (at 4:00 pm)
Minimum temperature yesterday: 52 °F (at 1:30 am)
Average temperature yesterday: 57 °F

High & Low Weather Summary for the Past Weeks

 TemperatureHumidityPressure
High66 °F (Nov 30, 2:00 pm)100% (Nov 30, 1:00 am)30.45 "Hg (Nov 30, 1:00 am)
Low36 °F (Dec 12, 2:30 am)34% (Dec 10, 3:30 pm)29.77 "Hg (Dec 4, 2:30 pm)
Average52 °F81%30.12 "Hg
* Reported Nov 29 9:00 pm — Dec 14 9:30 pm, Córdoba. Weather by CustomWeather, © 2019

Note: Actual official high and low records may vary slightly from our data, if they occured in-between our weather recording intervals... More about our weather records

Córdoba Weather History for the Previous 24 Hours

Scroll right to see more
 ConditionsComfort  
Time TempWeatherWind HumidityBarometerVisibility
9:30 pm
Sat, Dec 14
55 °FOvercast.1 mph72%30.15 "HgN/A
9:00 pm55 °FOvercast.2 mph72%30.15 "HgN/A
8:30 pm55 °FOvercast.1 mph77%30.15 "HgN/A
8:00 pm57 °FOvercast.3 mph67%30.15 "HgN/A
7:30 pm57 °FOvercast.No wind67%30.15 "HgN/A
7:00 pm57 °FOvercast.3 mph72%30.15 "HgN/A
6:30 pm59 °FOvercast.3 mph63%30.15 "HgN/A
6:00 pm59 °FOvercast.2 mph63%30.15 "HgN/A
5:30 pm61 °FPartly sunny.3 mph55%30.12 "HgN/A
5:00 pm61 °FPartly sunny.2 mph52%30.15 "HgN/A
4:30 pm61 °FPartly sunny.5 mph55%30.12 "HgN/A
4:00 pm61 °FPartly sunny.3 mph55%30.12 "HgN/A
3:30 pm61 °FPartly sunny.5 mph55%30.12 "HgN/A
3:00 pm61 °FPartly sunny.2 mph55%30.15 "HgN/A
2:30 pm61 °FPartly sunny.3 mph55%30.15 "HgN/A
2:00 pm61 °FPartly sunny.3 mph55%30.15 "HgN/A
1:30 pm59 °FPartly sunny.3 mph59%30.18 "HgN/A
1:00 pm61 °FPartly sunny.1 mph52%30.18 "HgN/A
12:30 pm59 °FPartly sunny.2 mph55%30.18 "HgN/A
12:00 pm59 °FPartly sunny.3 mph59%30.21 "HgN/A
11:30 am59 °FPartly sunny.3 mph59%30.21 "HgN/A
11:00 am57 °FPartly sunny.2 mph67%30.21 "HgN/A
10:30 am55 °FPartly sunny.1 mph77%30.21 "HgN/A
10:00 am55 °FPartly sunny.2 mph77%30.21 "HgN/A
9:30 am54 °FPartly sunny.2 mph77%30.21 "HgN/A
9:00 am54 °FPartly sunny.No wind77%30.18 "HgN/A
8:30 am54 °FPartly sunny.1 mph77%30.18 "HgN/A
8:00 am55 °FPassing clouds.5 mph72%30.18 "HgN/A
7:30 am55 °FOvercast.6 mph72%30.18 "HgN/A
7:00 am55 °FOvercast.6 mph72%30.18 "HgN/A
6:30 am54 °FOvercast.No wind94%30.15 "HgN/A
6:00 am54 °FOvercast.1 mph94%30.18 "HgN/A
5:30 am54 °FOvercast.3 mph94%30.15 "HgN/A
5:00 am54 °FOvercast.2 mph94%30.18 "HgN/A
4:30 am54 °FOvercast.3 mph94%30.18 "HgN/A
4:00 am54 °FOvercast.5 mph94%30.18 "HgN/A
3:30 am54 °FOvercast.5 mph94%30.18 "HgN/A
3:00 am54 °FOvercast.5 mph94%30.18 "HgN/A
2:30 am54 °FOvercast.5 mph94%30.18 "HgN/A
2:00 am54 °FOvercast.6 mph94%30.18 "HgN/A
1:00 am54 °FOvercast.5 mph94%30.21 "HgN/A
12:30 am54 °FOvercast.5 mph94%30.21 "HgN/A
12:00 am52 °FPassing clouds.2 mph94%30.21 "HgN/A
11:30 pm
Fri, Dec 13
52 °FCool.5 mph94%30.21 "HgN/A
11:00 pm55 °FCool.5 mph88%30.18 "HgN/A
10:30 pm55 °FPassing clouds.6 mph88%30.18 "HgN/A
10:00 pm57 °FOvercast.5 mph88%30.18 "HgN/A
Weather by CustomWeather, © 2019

See weather overview

Advertising